Terug naar catalogus

COSMOS 715

ActiefMilitairLEO
NORAD 7682·PAYLOAD·🇷🇺 Russia

Gelanceerd Feb 28, 1975 vanaf Plesetsk Cosmodrome

Loading…

Volgende Passages (komende 24 uur)

TLE

VersSource: Space-Track

Epoch: Sep 14, 2026, 09:31 UTC

1 07682U 75016E   26257.39669696 -.00000025  00000-0 -63649-4 0  9999
2 07682  74.0030  49.7479 0022442 306.8970  81.4437 12.44747057912983

Volg COSMOS 715 in realtime met AllMySat

Download on the App Store